Terug naar catalogus

COSMOS 1275 DEB

ActiefPO
NORAD 42170·DEBRIS·🇷🇺 Russia

Gelanceerd Jun 4, 1981 vanaf Plesetsk Cosmodrome

Loading…

Volgende Passages (komende 24 uur)

TLE

VerouderdSource: Space-Track

Epoch: Aug 18, 2026, 06:13 UTC

1 42170U 81053SJ  26230.25903394  .00000403  00000-0  54920-3 0  9999
2 42170  82.7581 230.9136 0196106 159.0727 201.8586 13.49104893593655

Volg COSMOS 1275 DEB in realtime met AllMySat

Download on the App Store